Temperature
20 20 20 20 20 20 20 20 20 20 20 20 20 20 19 19 19 19 19 19 19 18 18 18 18 18 18 18 18 18 18 18 18 18 17 17 17 17 17 17 17 17 17
21 20 20 20 20 20 20 20 20 20 20 19 19 19 19 19 19 19 19 19 18 18 18 18 18 18 18 18 18 18 18 18 18 18 17 17 17 17 17 17 17 17 17
21 21 20 20 20 20 20 20 20 19 19 19 19 19 19 19 19 19 19 19 18 18 18 18 18 18 18 18 18 18 18 17 17 17 17 17 17 17 17 17 17 17 17
21 21 21 20 20 20 20 20 19 19 19 19 19 19 19 19 19 19 18 18 18 18 18 18 18 18 18 18 18 17 17 17 17 17 17 17 17 17 17 17 17 17 17
21 21 21 20 20 20 20 20 19 19 19 19 19 19 19 19 19 18 18 18 18 18 18 18 18 18 18 18 17 17 17 17 17 17 17 18 17 17 17 17 17 17 17
21 21 21 20 20 20 20 20 19 19 19 19 19 19 19 18 18 18 18 18 18 18 18 18 18 18 18 17 17 17 17 17 17 17 17 17 17 17 17 17 17 17 17
21 21 21 20 20 20 20 19 19 19 19 19 19 19 19 18 18 18 18 18 18 18 18 18 18 18 18 17 17 17 17 17 17 17 17 17 17 17 17 17 17 17 17
22 21 21 20 20 20 20 19 19 19 19 19 19 19 18 18 18 18 18 18 18 18 18 18 18 18 18 17 17 17 17 17 17 17 17 17 17 17 17 17 17 17 17
22 21 21 20 20 20 20 19 19 19 19 19 19 18 18 18 18 18 18 18 18 18 18 18 18 18 17 17 17 17 17 17 17 17 18 17 17 17 17 17 17 17 17
21 21 21 20 20 20 20 19 19 19 19 19 19 18 18 18 18 18 18 18 18 18 18 18 18 18 18 17 17 17 17 17 17 18 18 18 17 17 17 17 17 17 17
21 21 21 20 20 20 20 19 19 19 19 19 18 18 18 18 18 18 18 18 18 18 18 18 18 18 18 17 17 17 17 17 17 18 18 18 17 17 17 17 17 17 17
20 21 20 20 20 20 20 19 19 19 19 19 18 18 18 18 18 18 18 18 18 18 18 18 18 18 18 17 17 17 17 17 17 18 18 18 17 17 17 17 17 17 17
21 20 20 20 20 20 20 19 19 19 19 19 18 18 18 18 18 18 18 18 18 18 18 18 18 18 18 17 17 17 17 17 17 18 18 18 17 17 17 17 17 17 17
21 21 20 20 20 20 20 19 19 19 19 19 18 18 18 18 18 18 18 18 18 18 18 18 18 18 18 17 17 17 17 18 18 18 18 17 18 18 17 17 17 17 17
21 20 20 20 20 20 19 19 19 19 19 19 18 18 18 18 18 18 18 18 18 18 18 18 18 18 18 17 17 17 17 17 17 18 18 18 18 18 17 17 17 17 17
20 20 20 19 19 19 19 19 19 19 19 19 18 18 18 18 18 18 18 18 18 18 18 18 18 18 18 17 17 17 17 17 17 18 18 17 17 17 17 17 17 17 17
21 20 20 20 19 19 19 19 19 19 19 19 19 18 18 18 18 18 18 18 18 18 18 18 17 17 17 17 17 17 17 17 17 17 17 17 17 17 17 17 17 17 17
21 20 20 20 19 19 19 19 19 19 19 19 19 18 18 18 18 18 18 18 18 18 18 18 18 17 17 17 17 17 17 17 17 17 17 17 17 17 17 17 17 17 17
21 20 20 20 19 19 19 19 19 19 18 18 19 18 18 18 18 18 18 18 18 18 18 18 18 18 18 17 17 17 17 17 17 17 17 17 17 17 17 17 17 17 17
20 20 20 19 19 19 19 19 18 18 18 18 18 18 18 18 18 18 18 18 18 18 18 18 18 18 18 18 17 17 17 17 17 17 17 17 17 17 17 17 17 17 17
20 20 20 19 19 19 19 19 18 18 18 18 18 18 18 18 18 18 18 18 18 18 18 18 18 18 18 17 17 17 17 17 17 17 17 17 17 17 17 17 17 17 17
20 20 20 19 19 19 19 19 19 19 18 18 18 18 18 18 18 18 18 18 18 18 18 18 18 18 18 18 17 17 17 17 18 17 17 17 17 17 17 17 17 17 17
20 20 19 19 19 19 19 19 18 18 18 18 18 18 18 18 18 18 18 18 18 18 18 18 18 18 18 18 18 18 18 18 18 18 18 17 17 17 17 17 17 17 17
20 20 19 19 19 19 18 18 18 18 18 18 18 18 18 18 18 18 18 18 18 18 18 18 18 18 18 18 18 18 18 18 18 18 18 17 17 17 17 17 17 17 17
20 20 19 19 19 18 18 18 18 18 18 18 18 18 18 18 18 18 18 18 18 18 18 18 18 18 18 18 18 18 18 18 18 18 18 17 17 17 17 17 17 17 17
20 19 19 19 19 18 18 18 18 18 18 18 18 18 18 18 18 18 18 18 18 18 18 18 18 18 18 18 18 18 18 18 18 18 18 18 18 17 17 17 17 17 17
Wind_Speed
8 13 18 19 19 19 20 20 20 20 20 20 19 19 19 19 19 18 18 17 16 15 15 15 15 16 16 16 17 17 18 19 20 20 19 19 19 20 20 20 19 18 21
13 17 21 21 20 20 20 19 19 19 19 19 18 18 18 18 17 17 16 16 15 15 14 15 15 15 15 16 17 17 18 19 19 19 18 18 19 19 19 18 18 17 20
16 18 21 21 21 21 20 20 19 19 18 18 17 17 17 17 17 16 16 15 15 14 14 14 15 15 15 15 16 17 17 18 18 18 17 15 16 18 18 18 18 18 19
18 19 20 22 22 21 20 20 19 18 18 17 16 16 17 16 16 16 15 15 15 14 14 14 14 14 14 15 15 15 16 16 17 17 14 14 15 17 18 18 18 18 18
15 18 21 23 23 22 21 20 19 18 17 16 16 16 16 16 15 15 15 15 14 14 14 14 14 14 14 14 13 14 14 14 15 14 13 14 15 17 18 18 18 17 17
13 18 22 23 23 22 21 20 19 18 17 16 16 15 15 15 15 15 15 15 14 14 14 14 13 13 13 12 12 12 12 14 14 14 14 14 14 17 17 17 17 17 16
14 16 21 23 22 22 21 20 19 18 17 16 16 15 15 15 15 15 15 14 14 14 14 13 13 12 12 11 11 10 12 14 14 14 14 13 14 16 16 16 16 16 16
17 15 20 22 22 21 20 19 18 18 17 16 15 15 15 14 14 14 14 14 14 13 13 12 12 11 10 10 9 10 11 13 14 13 13 13 16 16 16 16 16 15 15
15 14 15 19 20 21 20 19 18 18 17 16 15 15 14 14 14 14 14 13 13 13 12 11 11 10 9 8 8 8 10 13 13 13 13 13 16 16 16 15 15 15 15
13 12 11 15 16 17 18 19 18 17 16 16 15 15 14 14 14 13 13 13 12 12 11 10 9 8 7 7 7 9 12 13 12 12 13 13 16 15 15 15 14 14 14
13 10 10 11 13 15 15 17 17 17 16 15 15 15 13 12 12 12 12 12 12 11 10 9 8 7 6 6 7 11 12 10 12 11 12 15 16 15 15 14 14 14 13
15 13 11 11 11 13 13 13 13 13 13 13 12 13 11 11 10 10 12 12 11 10 9 8 7 6 5 5 6 9 10 11 10 10 12 16 16 15 14 14 13 13 13
16 15 12 11 12 11 8 11 9 10 11 11 12 12 11 9 8 9 9 9 9 8 6 6 5 4 4 4 5 6 8 10 9 9 13 16 16 15 14 13 13 13 13
16 15 14 12 11 10 10 9 9 8 8 8 11 12 10 7 7 8 7 7 7 6 5 5 3 3 2 3 4 5 8 9 9 10 13 15 15 15 14 14 13 13 12
15 15 15 13 11 9 8 8 9 8 8 10 11 12 12 8 5 6 6 7 7 7 6 5 4 4 3 3 5 7 8 9 10 11 13 15 15 15 14 14 13 13 12
14 14 13 13 12 11 9 7 7 9 10 10 10 12 14 12 8 6 5 6 7 8 8 7 6 4 3 3 4 7 9 10 11 11 12 14 14 15 14 14 13 13 12
14 14 14 14 12 12 10 8 7 9 10 8 10 13 13 13 11 8 5 5 6 8 8 6 4 3 2 3 3 6 7 9 11 11 12 12 13 13 14 14 14 13 12
14 13 14 14 12 11 9 7 6 7 8 8 10 11 13 13 13 10 5 5 8 8 6 3 3 3 2 2 3 3 5 7 9 11 12 12 12 11 13 14 14 13 13
14 14 12 11 11 10 9 6 6 6 6 7 9 10 11 12 13 10 6 5 8 6 4 4 3 3 3 3 3 3 3 4 6 10 10 12 13 12 13 14 14 14 14
12 12 11 10 10 8 6 5 4 4 4 6 7 9 11 11 12 10 6 6 7 4 4 3 3 2 2 3 2 1 1 3 4 5 8 10 12 13 13 13 14 14 15
10 11 11 10 9 8 5 5 5 4 4 4 5 9 11 11 11 9 5 5 5 5 5 5 4 3 2 2 2 2 3 1 3 4 5 6 9 12 13 14 13 13 12
11 10 10 10 10 9 7 5 4 4 3 4 4 6 10 11 11 9 6 5 5 5 5 5 4 3 1 2 3 2 2 3 2 2 3 5 6 8 9 12 12 12 11
10 11 11 10 10 9 8 5 4 3 2 2 3 4 6 10 11 9 8 5 5 5 5 5 5 5 3 1 2 4 3 3 2 2 2 3 4 4 5 9 11 12 12
9 9 9 9 9 8 8 8 8 7 6 6 5 5 5 8 9 10 9 7 6 5 6 6 5 4 5 3 1 2 3 4 3 1 2 1 3 4 4 5 8 10 11
8 8 8 8 8 8 9 10 9 7 5 4 5 6 5 5 6 9 9 7 6 5 6 6 5 5 4 4 3 2 1 1 2 3 1 1 1 1 3 3 3 5 8
7 7 8 8 8 8 9 9 9 9 7 7 6 7 5 4 4 6 7 6 5 5 5 5 5 6 4 4 3 3 3 3 3 3 3 2 1 1 0 1 1 3 5
Wind_Direction
143 147 142 135 131 125 120 116 112 109 106 104 103 103 104 105 107 108 112 117 119 119 117 116 114 113 113 113 114 114 115 115 115 116 117 118 118 117 116 114 112 112 113
144 147 142 137 134 129 124 120 116 114 112 110 108 107 107 108 109 110 113 116 119 120 119 119 118 116 115 115 116 117 117 116 117 116 116 116 118 117 115 115 114 116 114
139 143 141 138 135 132 128 125 122 119 116 114 112 111 110 110 111 111 113 116 118 120 120 121 121 120 118 118 118 119 119 118 116 113 110 108 115 119 118 118 117 115 115
139 140 141 139 137 134 131 128 126 123 120 118 116 115 114 113 113 112 114 116 118 120 121 122 123 123 122 122 121 121 122 122 118 114 110 111 115 120 120 119 117 116 116
136 139 142 141 138 136 134 132 130 127 124 122 120 118 118 117 116 115 116 117 119 121 122 123 124 124 124 123 122 121 121 121 122 115 110 109 114 120 121 121 119 118 117
132 138 142 141 139 139 137 135 133 131 128 126 123 122 121 120 119 119 119 119 121 123 125 125 126 126 126 124 122 122 123 121 118 117 114 114 118 123 123 123 122 120 120
136 139 142 142 141 141 140 139 137 135 133 130 128 126 124 122 122 121 121 121 123 125 125 126 128 128 126 124 122 121 124 124 122 122 120 120 124 125 125 125 123 122 122
140 140 143 144 144 144 143 142 141 139 137 135 133 130 128 127 126 124 124 124 124 127 128 129 130 130 128 123 119 120 127 131 129 130 128 127 129 128 128 127 128 127 126
140 140 142 145 146 146 146 145 145 144 142 140 138 136 134 132 130 129 128 128 128 130 133 135 135 133 128 122 115 114 128 136 131 135 136 133 133 132 132 132 132 131 131
140 142 141 144 146 147 149 150 150 148 146 144 143 141 139 136 135 134 133 134 134 135 137 138 139 136 129 121 109 110 126 128 134 137 137 141 140 139 138 137 136 137 137
145 146 145 145 146 147 150 155 154 152 152 150 149 148 143 137 138 140 142 141 142 142 141 141 142 140 128 113 106 111 116 124 131 138 144 149 147 145 144 143 143 143 142
156 158 157 154 151 153 155 151 153 153 154 152 154 151 148 149 152 152 153 150 149 148 146 148 149 145 124 104 103 111 117 132 138 145 153 154 152 151 150 150 150 149 148
162 163 165 164 160 161 151 152 154 153 156 159 162 163 163 163 163 156 155 154 153 152 150 155 156 153 140 120 116 124 132 139 150 153 159 159 157 156 156 156 155 154 152
166 169 169 170 166 162 155 161 163 161 167 171 176 173 165 158 157 160 160 163 162 163 165 170 170 168 159 148 139 145 147 149 155 153 162 164 163 162 161 163 163 162 160
168 170 171 168 168 162 159 169 170 171 177 180 178 177 170 161 162 167 172 177 182 180 176 176 185 199 205 180 161 156 154 155 159 161 168 171 170 167 167 170 171 170 168
169 168 166 165 166 163 168 172 171 175 178 177 176 178 174 167 166 166 168 179 188 186 181 180 190 191 188 168 158 158 160 161 166 169 171 176 176 175 174 176 178 178 178
170 166 164 165 162 166 170 175 171 172 172 174 177 177 176 172 168 165 160 175 187 182 175 174 180 168 160 158 156 159 164 166 169 173 175 178 181 183 183 183 185 186 187
163 162 167 167 163 165 164 160 154 162 165 173 178 178 178 175 169 162 163 177 180 171 163 158 158 150 158 161 167 170 162 168 173 178 180 183 184 189 193 192 192 193 194
162 162 166 162 163 162 157 151 146 154 162 172 175 174 174 172 169 163 168 176 170 160 161 172 153 153 161 174 184 175 174 173 180 182 185 190 191 195 198 202 202 201 202
160 160 160 158 160 154 148 138 135 140 161 170 172 172 169 170 169 164 167 170 158 148 158 157 148 147 154 166 165 140 178 188 189 188 190 192 197 202 204 204 207 211 214
155 158 159 158 161 156 156 159 159 164 166 169 181 178 174 174 170 164 166 165 158 161 173 164 144 143 146 135 95 39 0 332 210 210 194 186 197 203 204 207 209 212 219
165 166 163 164 166 169 170 167 164 158 172 175 182 183 183 179 174 172 162 166 166 160 159 159 146 140 161 148 136 111 17 342 314 237 205 198 200 196 200 206 207 211 217
172 174 173 170 174 177 169 152 143 130 125 152 176 182 187 182 181 175 169 163 166 164 169 174 162 152 165 186 159 147 152 214 276 314 249 210 192 187 197 201 206 210 212
180 176 169 170 174 178 172 169 166 173 179 185 180 183 184 184 184 178 174 170 167 168 173 181 171 159 151 173 192 187 173 160 159 240 319 263 191 192 198 203 210 209 210
171 171 169 169 177 181 180 179 175 181 184 169 166 175 183 190 191 180 176 170 166 169 176 176 164 162 160 167 174 170 161 147 140 146 203 275 306 236 205 194 193 198 202
167 169 171 172 181 182 181 178 178 180 177 169 175 181 186 192 195 184 176 172 171 171 175 178 172 168 168 160 161 161 164 165 183 163 175 203 210 268 149 150 154 171 175
Height
1530 1533 1535 1537 1538 1539 1540 1542 1543 1544 1545 1546 1547 1548 1548 1549 1550 1551 1552 1553 1554 1554 1555 1556 1557 1558 1558 1559 1560 1561 1561 1562 1562 1563 1564 1565 1566 1567 1568 1569 1570 1571 1572
1529 1532 1536 1538 1539 1541 1542 1543 1544 1545 1546 1547 1548 1549 1550 1551 1551 1552 1553 1554 1555 1556 1556 1557 1558 1559 1560 1561 1562 1562 1563 1564 1565 1565 1566 1567 1568 1569 1570 1571 1572 1573 1574
1529 1533 1536 1538 1540 1542 1543 1544 1546 1547 1548 1549 1550 1550 1551 1552 1553 1554 1554 1555 1556 1557 1558 1559 1560 1561 1562 1562 1563 1564 1565 1566 1567 1568 1568 1569 1570 1571 1572 1573 1574 1575 1576
1530 1533 1536 1539 1541 1543 1544 1546 1547 1548 1549 1550 1551 1552 1552 1553 1554 1555 1556 1556 1557 1558 1559 1560 1561 1563 1563 1564 1565 1566 1567 1568 1569 1570 1570 1571 1572 1573 1574 1575 1576 1577 1578
1531 1534 1537 1540 1542 1544 1545 1547 1548 1549 1550 1551 1552 1553 1554 1555 1555 1556 1557 1558 1558 1559 1561 1562 1563 1564 1565 1566 1567 1568 1569 1570 1571 1572 1573 1573 1574 1575 1576 1577 1578 1579 1580
1532 1535 1538 1540 1542 1544 1546 1548 1549 1550 1551 1552 1553 1554 1555 1556 1557 1557 1558 1559 1560 1561 1562 1564 1565 1566 1567 1568 1569 1570 1571 1572 1573 1573 1574 1575 1576 1577 1578 1579 1580 1581 1582
1532 1535 1538 1541 1543 1545 1547 1548 1550 1551 1552 1553 1554 1555 1556 1557 1558 1559 1560 1560 1561 1563 1564 1565 1567 1568 1569 1570 1571 1572 1573 1574 1575 1575 1576 1577 1578 1579 1580 1581 1582 1583 1584
1532 1535 1538 1541 1544 1546 1547 1549 1551 1552 1553 1554 1556 1557 1558 1558 1559 1560 1561 1562 1563 1564 1566 1567 1568 1570 1571 1572 1573 1574 1574 1575 1576 1577 1578 1579 1580 1581 1581 1582 1583 1584 1586
1534 1536 1538 1541 1544 1546 1548 1549 1551 1553 1554 1555 1557 1558 1559 1560 1561 1562 1563 1564 1565 1566 1567 1569 1570 1572 1573 1574 1575 1575 1576 1577 1578 1579 1580 1580 1581 1582 1583 1584 1585 1586 1587
1534 1537 1539 1541 1544 1546 1548 1550 1552 1553 1555 1556 1558 1559 1560 1561 1562 1563 1564 1565 1567 1568 1569 1570 1572 1573 1575 1576 1577 1577 1578 1579 1580 1581 1581 1582 1583 1584 1585 1586 1587 1588 1589
1535 1537 1539 1541 1544 1546 1548 1550 1552 1554 1555 1557 1558 1560 1561 1562 1563 1564 1566 1567 1568 1569 1570 1572 1573 1575 1576 1577 1578 1579 1579 1580 1581 1582 1583 1583 1584 1585 1586 1587 1588 1589 1590
1534 1536 1539 1541 1543 1546 1548 1550 1552 1554 1556 1557 1559 1560 1562 1563 1564 1566 1567 1568 1569 1571 1572 1573 1574 1576 1577 1579 1580 1580 1581 1581 1583 1583 1584 1584 1585 1586 1587 1588 1589 1590 1591
1533 1535 1538 1541 1543 1545 1548 1550 1552 1554 1556 1558 1559 1561 1562 1564 1565 1567 1568 1569 1571 1572 1573 1574 1576 1577 1579 1580 1581 1581 1582 1583 1584 1584 1585 1585 1586 1587 1588 1589 1590 1591 1592
1531 1534 1537 1540 1542 1545 1547 1550 1552 1554 1556 1558 1560 1561 1563 1564 1566 1567 1569 1570 1572 1573 1574 1575 1577 1578 1579 1581 1581 1582 1583 1584 1584 1585 1586 1586 1587 1588 1589 1590 1591 1592 1593
1530 1533 1536 1538 1541 1544 1547 1549 1551 1554 1556 1558 1560 1561 1563 1565 1566 1568 1569 1571 1572 1574 1575 1576 1577 1579 1580 1581 1582 1582 1583 1584 1585 1586 1586 1587 1588 1589 1589 1590 1591 1592 1593
1528 1531 1534 1537 1540 1543 1546 1548 1551 1553 1556 1558 1559 1561 1563 1565 1566 1568 1570 1571 1573 1574 1575 1577 1578 1579 1580 1581 1582 1583 1584 1585 1585 1586 1587 1588 1588 1589 1590 1591 1592 1593 1594
1527 1530 1533 1536 1539 1542 1545 1548 1550 1553 1555 1557 1559 1561 1563 1565 1566 1568 1570 1571 1573 1574 1575 1577 1578 1579 1581 1582 1582 1583 1584 1585 1586 1587 1587 1588 1589 1589 1590 1591 1592 1593 1594
1525 1528 1531 1535 1537 1540 1544 1547 1549 1552 1555 1557 1559 1560 1562 1564 1566 1568 1569 1571 1572 1574 1575 1577 1578 1579 1580 1582 1583 1583 1584 1585 1586 1587 1587 1588 1589 1589 1590 1591 1592 1592 1593
1524 1527 1530 1533 1536 1539 1542 1545 1548 1551 1553 1556 1558 1560 1562 1564 1566 1567 1569 1570 1572 1573 1575 1576 1578 1579 1580 1581 1582 1583 1584 1585 1586 1587 1587 1588 1589 1589 1590 1591 1591 1592 1593
1524 1526 1529 1531 1535 1538 1541 1543 1546 1549 1552 1554 1556 1559 1561 1563 1565 1567 1568 1570 1571 1573 1574 1575 1577 1578 1580 1581 1582 1583 1584 1584 1585 1586 1587 1588 1588 1589 1590 1590 1591 1591 1592
1523 1525 1527 1530 1533 1536 1538 1540 1543 1546 1549 1552 1555 1558 1560 1562 1564 1565 1567 1568 1570 1571 1573 1575 1576 1577 1579 1580 1581 1582 1583 1584 1584 1585 1586 1587 1587 1588 1589 1590 1590 1591 1591
1521 1523 1526 1528 1530 1533 1536 1538 1541 1544 1548 1550 1553 1556 1558 1560 1562 1564 1565 1567 1569 1570 1572 1573 1574 1576 1577 1579 1580 1581 1582 1584 1583 1584 1585 1585 1586 1587 1587 1588 1589 1590 1590
1520 1522 1524 1526 1528 1531 1533 1536 1539 1542 1546 1548 1551 1553 1556 1558 1560 1562 1564 1566 1567 1569 1570 1571 1573 1574 1576 1577 1578 1580 1580 1580 1581 1582 1583 1584 1585 1585 1586 1587 1587 1588 1589
1519 1521 1523 1524 1526 1529 1531 1533 1536 1538 1541 1544 1547 1551 1554 1556 1558 1560 1562 1564 1565 1567 1568 1570 1571 1573 1574 1575 1577 1578 1579 1579 1580 1580 1582 1582 1583 1584 1585 1585 1586 1586 1587
1517 1519 1521 1523 1524 1526 1528 1530 1533 1536 1540 1543 1546 1549 1551 1554 1556 1558 1560 1562 1563 1565 1567 1568 1569 1571 1572 1574 1575 1576 1577 1577 1578 1579 1579 1580 1582 1582 1583 1584 1584 1585 1586
1516 1518 1519 1521 1522 1524 1526 1528 1530 1533 1537 1540 1543 1546 1548 1551 1553 1555 1557 1559 1561 1563 1564 1566 1567 1569 1570 1572 1573 1574 1575 1575 1576 1577 1577 1578 1579 1580 1581 1582 1582 1583 1584